User: anonymous   Login
Location: Tamazert
(32.6352°N, 5.2072°W)
Time: 17:05:54
(UTC+00:00)
Language:

Transit 2A - Orbit

View from above orbital plane
View from above orbital plane
View from above satellite
View from above satellite

Ground track
Ground track

The orbit data is extracted from the following two-line orbital elements,

1    45U 60007A   22269.53034086  .00000082  00000-0  47607-4 0  9990
2    45  66.6967 350.5499 0247724  70.1011 292.6596 14.33907346241840
Epoch (UTC): 26 September 2022 12:43:41
Eccentricity: 0.0247724
inclination: 66.6967°
perigee height: 601 km
apogee height: 956 km
right ascension of ascending node: 350.5499°
argument of perigee: 70.1011°
revolutions per day: 14.33907346
mean anomaly at epoch: 292.6596°
orbit number at epoch: 24184

The dashed part of the orbit path shows where the satellite is in the earth's shadow,  

DLR